User: anonymous   Login
Location: Unspecified
(0.0000°N, 0.0000°E)
Time: 20:13:41
(UTC+00:00)
Language:

STARLINK-3109 - Orbit

View from above orbital plane
View from above orbital plane
View from above satellite
View from above satellite

Ground track
Ground track

The orbit is defined by the following mean orbital elements,

1 49143U          26145.22472199 +.00000000 +00000-0 +76615-4 0 00007
2 49143  70.0002  82.5186 0003150 263.8820  96.1979 14.97534983    04
Epoch (UTC): 25 May 2026 05:23:35
Eccentricity: 0.0003150
inclination: 70.0002°
perigee height: 572 km
apogee height: 577 km
right ascension of ascending node: 82.5186°
argument of perigee: 263.8820°
revolutions per day: 14.97534983
mean anomaly at epoch: 96.1979°

The dashed part of the orbit path shows where the satellite is in the earth's shadow,  

DLR